This is the latest recevied weather packets stored in our database for station/object AC4AG. If no packets are shown the sender has not sent any weather packets the latest 10 day(s).
| Time | Temp. | Humidity | Pressure | Rain* | Wind** | Luminosity | Snow |
|---|---|---|---|---|---|---|---|
| 1777565735 | 12.78° C | 56% | 1016.2 hPa | 0 mm | - | 840 W/m² | - |
| 1777565432 | 12.78° C | 56% | 1016.3 hPa | 0 mm | - | 831 W/m² | - |
| 1777565129 | 12.22° C | 55% | 1016.2 hPa | 0 mm | - | 821 W/m² | - |
| 1777564825 | 12.22° C | 55% | 1016.3 hPa | 0 mm | - | 815 W/m² | - |
| 1777564520 | 12.22° C | 59% | 1016.3 hPa | 0 mm | - | 802 W/m² | - |
| 1777564215 | 12.22° C | 58% | 1016.5 hPa | 0 mm | - | 796 W/m² | - |
| 1777563912 | 12.22° C | 57% | 1016.4 hPa | 0 mm | - | 781 W/m² | - |
| 1777563608 | 12.22° C | 58% | 1016.5 hPa | 0 mm | - | 776 W/m² | - |
| 1777563308 | 11.67° C | 59% | 1016.3 hPa | 0 mm | - | 758 W/m² | - |
| 1777563004 | 12.22° C | 58% | 1016.5 hPa | 0 mm | - | 745 W/m² | - |
| 1777562700 | 11.67° C | 56% | 1016.5 hPa | 0 mm | - | 727 W/m² | - |
| 1777562400 | 12.22° C | 57% | 1016.6 hPa | 0 mm | - | 731 W/m² | - |
| 1777562096 | 11.67° C | 64% | 1016.5 hPa | 0 mm | - | 637 W/m² | - |
| 1777561793 | 11.67° C | 65% | 1016.2 hPa | 0 mm | - | 184 W/m² | - |
| 1777561489 | 11.11° C | 63% | 1016.2 hPa | 0 mm | - | 730 W/m² | - |
| 1777561184 | 11.11° C | 64% | 1016.1 hPa | 0 mm | - | 495 W/m² | - |
| 1777560879 | 10.56° C | 66% | 1016.2 hPa | 0 mm | - | 684 W/m² | - |
| 1777560577 | 11.67° C | 64% | 1016.3 hPa | 0 mm | - | 217 W/m² | - |
| 1777560275 | 11.11° C | 70% | 1015.9 hPa | 0 mm | - | 646 W/m² | - |
| 1777559973 | 10° C | 71% | 1016.2 hPa | 0 mm | - | 613 W/m² | - |
| 1777559673 | 10° C | 72% | 1016.2 hPa | 0 mm | - | 107 W/m² | - |
| 1777559371 | 10° C | 72% | 1016.1 hPa | 0 mm | - | 143 W/m² | - |
| 1777559067 | 10.56° C | 71% | 1016 hPa | 0 mm | - | 255 W/m² | - |
| 1777558761 | 10° C | 73% | 1016 hPa | 0 mm | - | 282 W/m² | - |
| 1777558458 | 10.56° C | 73% | 1016.1 hPa | 0 mm | - | 173 W/m² | - |
* Rain latest hour (hover to see other rain measurements)
** Current wind speed in m/s (hover to see current wind gust speed)